Weather History for Aktion, Greece

Change the Weather History Date:

Sunday, September 9, 2012

  Actual Average Record
Temperature  
Mean Temperature 78 °F -  
Max Temperature 88 °F 75 °F 88 °F (2012)
Min Temperature 69 °F 62 °F 59 °F (2007)
Cooling Degree Days 14    
Growing Degree Days 28 (Base 50)    
Moisture  
Dew Point 67 °F    
Average Humidity 67    
Maximum Humidity 88    
Minimum Humidity 40    
Precipitation  
Precipitation 0.00 in - - ()
Sea Level Pressure  
Sea Level Pressure 29.97 in    
Wind  
Wind Speed 4 mph ()    
Max Wind Speed 15 mph    
Max Gust Speed -    
Visibility 6.1 miles    
Events      
Averages and records for this station are not official NWS values.
T = Trace of Precipitation, MM = Missing Value Source: Averaged Metar Reports

Daily Weather History Graph

Daily Weather History Graph

Search for Another Location

Airport:

Trip Planner

Search our weather history database for the weather conditions in past years. The results will help you decide how hot, cold, wet, or windy it might be!

Date:

Astronomy

Sep. 09, 2012 Rise Set
Actual Time 7:13 AM EEST 7:54 PM EEST
Civil Twilight 6:46 AM EEST 8:21 PM EEST
Nautical Twilight 6:14 AM EEST 8:53 PM EEST
Astronomical Twilight 5:41 AM EEST 9:25 PM EEST
Moon 12:29 AM EEST (9/9) 3:23 PM EEST (9/9)
Length of Visible Light 13h 35m
Length of Day
12h 41m
Last Quarter, 42% of the Moon is Illuminated
Sep 9
Last Quarter
Sep 16
New
Sep 22
First Quarter
Sep 30
Full
Oct 8
Last Quarter

Hourly Weather History & Observations

Time (EEST) Temp. Heat Index Dew Point Humidity Pressure Visibility Wind Dir Wind Speed Gust Speed Precip Events Conditions
12:50 AM 77.0 °F - 69.8 °F 78% 29.98 in - Calm Calm - N/A   Clear
1:50 AM 73.4 °F - 68.0 °F 83% 29.98 in - Calm Calm - N/A   Clear
2:50 AM 71.6 °F - 68.0 °F 88% 29.98 in - Calm Calm - N/A   Clear
3:00 AM 72 °F - 67 °F 81% 29.98 in 6 mi Calm Calm - -  
4:50 AM 71.6 °F - 68.0 °F 88% 29.98 in - Calm Calm - N/A   Clear
5:50 AM 71.6 °F - 66.2 °F 83% 29.98 in - Calm Calm - N/A   Clear
6:20 AM 69.8 °F - 66.2 °F 88% 29.98 in - Calm Calm - N/A   Clear
7:20 AM 69.8 °F - 64.4 °F 83% 29.98 in - East 4.6 mph - N/A   Clear
7:50 AM 71.6 °F - 66.2 °F 83% 29.98 in - East 6.9 mph - N/A   Clear
8:20 AM 73.4 °F - 68.0 °F 83% 29.98 in - East 4.6 mph - N/A   Clear
8:50 AM 77.0 °F - 68.0 °F 74% 29.98 in - ENE 5.8 mph - N/A   Clear
9:00 AM 77 °F - 69 °F 69% 29.99 in 6 mi ENE 5.8 mph - -  
9:20 AM 77.0 °F - 66.2 °F 69% 29.98 in - ENE 5.8 mph - N/A   Clear
9:50 AM 78.8 °F - 62.6 °F 57% 29.98 in - ENE 5.8 mph - N/A   Clear
10:20 AM 80.6 °F 82.3 °F 64.4 °F 58% 29.98 in - ENE 4.6 mph - N/A   Clear
10:50 AM 80.6 °F 81.8 °F 62.6 °F 54% 29.98 in - East 4.6 mph - N/A   Clear
11:20 AM 84.2 °F 84.4 °F 60.8 °F 45% 30.01 in - Variable 3.5 mph - N/A   Clear
11:50 AM 86.0 °F 85.4 °F 59.0 °F 40% 29.98 in - Calm Calm - N/A   Clear
12:20 PM 86.0 °F 86.1 °F 60.8 °F 43% 29.98 in - WNW 5.8 mph - N/A   Clear
12:50 PM 87.8 °F 87.6 °F 60.8 °F 40% 29.98 in - WNW 5.8 mph - N/A   Clear
1:20 PM 86.0 °F 87.3 °F 64.4 °F 48% 29.98 in - WNW 9.2 mph - N/A   Clear
1:50 PM 86.0 °F 89.4 °F 68.0 °F 55% 29.98 in 6.2 mi WNW 11.5 mph - N/A   Partly Cloudy
2:20 PM 86.0 °F 89.4 °F 68.0 °F 55% 29.98 in 6.2 mi WNW 13.8 mph - N/A   Partly Cloudy
2:50 PM 86.0 °F 89.4 °F 68.0 °F 55% 29.98 in 6.2 mi WNW 15.0 mph - N/A   Partly Cloudy
3:20 PM 86.0 °F 90.4 °F 69.8 °F 58% 29.95 in 6.2 mi West 13.8 mph - N/A   Partly Cloudy
4:20 PM 86.0 °F 89.4 °F 68.0 °F 55% 29.95 in 6.2 mi WNW 13.8 mph - N/A   Partly Cloudy
4:50 PM 86.0 °F 89.4 °F 68.0 °F 55% 29.95 in 6.2 mi WNW 12.7 mph - N/A   Partly Cloudy
5:20 PM 84.2 °F 87.3 °F 68.0 °F 58% 29.95 in 6.2 mi WNW 12.7 mph - N/A   Partly Cloudy
5:50 PM 84.2 °F 88.4 °F 69.8 °F 62% 29.95 in - WNW 12.7 mph - N/A   Clear
6:20 PM 82.4 °F 85.4 °F 68.0 °F 62% 29.95 in - WNW 12.7 mph - N/A   Clear
6:50 PM 80.6 °F 83.9 °F 69.8 °F 70% 29.95 in - WNW 11.5 mph - N/A   Clear
7:20 PM 80.6 °F 83.9 °F 69.8 °F 70% 29.95 in - WNW 11.5 mph - N/A   Clear
7:50 PM 78.8 °F - 71.6 °F 78% 29.95 in - WNW 10.4 mph - N/A   Clear
8:20 PM 78.8 °F - 69.8 °F 74% 29.95 in - West 8.1 mph - N/A   Clear
8:50 PM 77.0 °F - 71.6 °F 83% 29.95 in - West 8.1 mph - N/A   Clear
9:00 PM 78 °F - 71 °F 72% 29.97 in 6 mi West 8.1 mph - -  
9:50 PM 77.0 °F - 69.8 °F 78% 29.98 in - West 5.8 mph - N/A   Clear
10:50 PM 77.0 °F - 69.8 °F 78% 29.98 in - Variable 3.5 mph - N/A   Clear
11:50 PM 77.0 °F - 69.8 °F 78% 29.98 in - West 4.6 mph - N/A   Clear